Rifle, CO

1:53 PM MST on February 26, 2017 (GMT -0700)
Garfield County Regional

Weather History for KRIL - March, 2012

Change the Weather History Date:

Wednesday, March 28, 2012

  Actual Average Record
Temperature  
Mean Temperature 52 °F 43 °F  
Max Temperature 73 °F 57 °F 79 °F (1986)
Min Temperature 30 °F 29 °F 5 °F (1975)
Degree Days  
Heating Degree Days 13 22  
Month to date heating degree days 632 722  
Since 1 July heating degree days 5393 5719  
Cooling Degree Days 0 0  
Month to date cooling degree days 0 0  
Year to date cooling degree days 0 0  
Moisture  
Dew Point 19 °F    
Average Humidity 41    
Maximum Humidity 69    
Minimum Humidity 12    
Precipitation  
Precipitation 0.00 in 0.06 in 0.81 in (1949)
Month to date precipitation 0.25 1.04  
Year to date precipitation 1.92 2.61  
Sea Level Pressure  
Sea Level Pressure 29.90 in    
Wind  
Wind Speed 7 mph (WSW)    
Max Wind Speed 29 mph    
Max Gust Speed 36 mph    
Visibility 10 miles    
Events      
T = Trace of Precipitation, MM = Missing Value Source: NWS Daily Summary

Daily Weather History Graph

Daily Weather History Graph

Search for Another Location

Airport or City:

Trip Planner

Search our weather history database for the weather conditions in past years. The results will help you decide how hot, cold, wet, or windy it might be!

Date:

Astronomy

Mar. 28, 2012 Rise Set
Actual Time 7:00 AM MDT 7:31 PM MDT
Civil Twilight 6:33 AM MDT 7:58 PM MDT
Nautical Twilight 6:01 AM MDT 8:30 PM MDT
Astronomical Twilight 5:29 AM MDT 9:03 PM MDT
Moon 10:21 AM MDT (3/28) 12:34 AM MDT (3/28)
Length of Visible Light 13h 24m
Length of Day
12h 30m
Waxing Crescent, 31% of the Moon is Illuminated
Mar 28
Waxing Crescent
Mar 30
First Quarter
Apr 6
Full
Apr 13
Last Quarter
Apr 21
New

Hourly Weather History & Observations

Time (MDT) Temp. Windchill Dew Point Humidity Pressure Visibility Wind Dir Wind Speed Gust Speed Precip Events Conditions
12:53 AM 44.1 °F - 23.0 °F 43% 29.96 in 10.0 mi Calm Calm - N/A   Clear
1:53 AM 41.0 °F 38.0 °F 23.0 °F 49% 29.96 in 10.0 mi ESE 4.6 mph - N/A   Clear
2:53 AM 36.0 °F - 21.9 °F 57% 29.97 in 10.0 mi Calm Calm - N/A   Clear
3:53 AM 35.1 °F - 21.0 °F 57% 29.97 in 10.0 mi Calm Calm - N/A   Clear
4:53 AM 33.1 °F - 21.0 °F 61% 29.97 in 10.0 mi Calm Calm - N/A   Clear
5:53 AM 32.0 °F - 21.0 °F 64% 29.98 in 10.0 mi Calm Calm - N/A   Clear
6:53 AM 30.9 °F - 21.0 °F 67% 30.00 in 10.0 mi Calm Calm - N/A   Clear
7:53 AM 33.1 °F 30.0 °F 23.0 °F 66% 30.03 in 10.0 mi WSW 3.5 mph - N/A   Clear
8:53 AM 41.0 °F - 23.0 °F 49% 30.01 in 10.0 mi Calm Calm - N/A   Clear
9:53 AM 46.9 °F - 24.1 °F 41% 29.99 in 10.0 mi Calm Calm - N/A   Clear
10:53 AM 54.0 °F - 21.9 °F 29% 29.96 in 10.0 mi WNW 3.5 mph - N/A   Clear
11:53 AM 60.1 °F - 19.9 °F 21% 29.92 in 10.0 mi NW 6.9 mph - N/A   Clear
12:53 PM 66.0 °F - 21.9 °F 19% 29.87 in 10.0 mi West 17.3 mph - N/A   Clear
1:53 PM 69.1 °F - 19.0 °F 15% 29.84 in 10.0 mi West 17.3 mph 24.2 mph N/A   Clear
2:44 PM 69.8 °F - 19.4 °F 15% 29.94 in 2.0 mi West 13.8 mph 25.3 mph N/A   Haze
2:53 PM 70.0 °F - 19.9 °F 15% 29.82 in 10.0 mi WNW 17.3 mph 21.9 mph N/A   Clear
3:53 PM 71.1 °F - 19.0 °F 14% 29.80 in 10.0 mi West 21.9 mph 28.8 mph N/A   Clear
4:53 PM 68.0 °F - 18.0 °F 15% 29.81 in 10.0 mi West 15.0 mph 23.0 mph N/A   Clear
5:53 PM 68.0 °F - 18.0 °F 15% 29.80 in 10.0 mi WNW 5.8 mph - N/A   Clear
6:53 PM 66.9 °F - 16.0 °F 14% 29.81 in 10.0 mi South 11.5 mph - N/A   Clear
7:53 PM 62.1 °F - 16.0 °F 17% 29.84 in 10.0 mi SW 11.5 mph - N/A   Clear
8:53 PM 63.0 °F - 9.0 °F 12% 29.83 in 10.0 mi SSW 8.1 mph 18.4 mph N/A   Clear
9:53 PM 59.0 °F - 10.0 °F 14% 29.84 in 10.0 mi SSW 8.1 mph - N/A   Clear
10:53 PM 57.9 °F - 10.9 °F 16% 29.81 in 10.0 mi Calm Calm - N/A   Clear
11:53 PM 53.1 °F - 16.0 °F 23% 29.81 in 10.0 mi SSW 3.5 mph - N/A   Clear